Regional Weather Roundup
Issued by NWS

Home | Current Version | Previous Version | Graphics & Text | Print | Product List | Glossary On
Versions: 1 2 3 4 5 6 7 8 9 10 11 12 13 14 15 16 17 18 19 20 21 22 23 24 25 26 27 28 29 30 31 32 33 34 35 36 37 38 39 40 41 42 43 44 45 46 47 48 49 50
000
ASUS45 KBOU 051407
RWRCO

WEATHER ROUNDUP FOR COLORADO
NATIONAL WEATHER SERVICE DENVER/BOULDER CO
800 AM MDT THU MAY 05 2016

NOTE: "FAIR" INDICATES FEW OR NO CLOUDS BELOW 12000 FEET WITH NO
SIGNIFICANT WEATHER AND/OR OBSTRUCTIONS TO VISIBILITY.

COZ001>005-013-030-031-051500-
...NORTHWEST COLORADO...

CITY           SKY/WX    TMP DP  RH WIND       PRES   REMARKS
CRAIG          FAIR      45  37  73 VRB5      30.20R
HAYDEN         FAIR      45  30  57 E10       30.22S
MEEKER         PTSUNNY   50  32  50 CALM      30.21R
MOUNT WERNER   NOT AVBL
STEAMBOAT SPGS FAIR      40  31  72 CALM      30.26R
WALDEN         FAIR      36  28  75 SE3       30.33S
$$

COZ006>008-011-051500-
...WEST CENTRAL VALLEYS...

CITY           SKY/WX    TMP DP  RH WIND       PRES   REMARKS
GRAND JUNCTION FAIR      58  34  40 SE12      30.12R
MONTROSE       PTSUNNY   56  30  37 S7        30.21R
EAGLE          SUNNY     39  30  70 CALM      30.32S
RIFLE          FAIR      48  36  63 NW3       30.20R
DELTA          NOT AVBL
NUCLA          NOT AVBL
$$

COZ017>023-064>068-051500-
...SOUTHWEST COLORADO...

CITY           SKY/WX    TMP DP  RH WIND       PRES   REMARKS
DURANGO        FAIR      47  31  53 E5        30.26R
CORTEZ         FAIR      53  31  42 CALM      30.18R
PAGOSA SPRINGS FAIR      47  25  42 CALM      30.33S
TELLURIDE      FAIR      48  25  40 SE8       30.38R
WOLF CREEK PAS FAIR      37  14  38 SW8       30.55R
$$

COZ009-010-012-014-032>034-037-058>063-051500-
...CENTRAL COLORADO...

CITY           SKY/WX    TMP DP  RH WIND       PRES   REMARKS
ASPEN          FAIR      50  25  37 S6        30.29S
BUENA VISTA    FAIR      45  27  50 NW3       30.35S
COPPER MTN     NOT AVBL
BERTHOUD PASS  FAIR      32  25  74 NW20G31   30.51S WCI  20
COTTONWOOD PAS FAIR      50  25  37 CALM      30.42R
GUNNISON       FAIR      37  28  70 CALM      30.38S
KREMMLING      FAIR      36  30  80 CALM      30.35S
LEADVILLE      FAIR      38  23  55 CALM      30.41S
MONARCH PASS   FAIR      37  18  44 W7        30.61S
SALIDA         FAIR      46  30  54 W8        30.42R
SUNLIGHT       FAIR      45  21  39 CALM      30.47R
WILKERSON PASS FAIR      45  18  33 NW5       30.51R
$$

COZ069>075-051500-
...SAN LUIS VALLEY/SANGRE DE CRISTO MOUNTAINS...

CITY           SKY/WX    TMP DP  RH WIND       PRES   REMARKS
ALAMOSA        FAIR      48  28  46 CALM      30.33R
LA VETA PASS   FAIR      43  19  39 S8        30.43R
SAGUACHE       FAIR      45  30  57 NW5       30.36R
$$

COZ035-036-038>040-051500-
...NORTHERN COLORADO FRONT RANGE...

CITY           SKY/WX    TMP DP  RH WIND       PRES   REMARKS
DENVER INTL AP PTSUNNY   58  36  43 SW9       30.15S
DMNS CITY PARK   N/A     60  34  38 S3        30.15S
AURORA         FAIR      57  36  44 SW7       30.17R
FRONT RANGE AP NOT AVBL
ERIE MUNI ARPT FAIR      53  41  65 CALM      30.14S
BOULDER MUN AP FAIR      54  39  58 CALM      30.14S
CENTENNIAL     PTSUNNY   60  33  36 SW5       30.17S
BROOMFIELD     PTSUNNY   55  41  58 CALM      30.17R
FORT COLLINS   FAIR      54  43  66 S3        30.15R
LONGMONT       FAIR      55  42  62 CALM      30.15F
$$

COZ041-046-047-076>085-087-088-051500-
...PIKES PEAK/PALMER DIVIDE AND SOUTHERN FOOTHILLS...

CITY           SKY/WX    TMP DP  RH WIND       PRES   REMARKS
COLO. SPRINGS  FAIR      62  35  36 N9        30.20S
A. F. ACADEMY  FAIR      59  34  38 NE5       30.21S
SCHRIEVER AFB  NOT AVBL
ELLICOTT       FAIR     N/A N/A N/A N5        30.18S
FALCON         NOT AVBL
FORT CARSON    FAIR      59  34  39 N8        30.17R
LIMON          FAIR      53  45  74 CALM      30.18R
MONUMENT HILL  FAIR      55  34  44 W7        30.25S
TRINIDAD       FAIR      58  32  37 SW12      30.19R
$$

COZ042>045-048>051-090-091-051500-
...NORTHEAST COLORADO...

CITY           SKY/WX    TMP DP  RH WIND       PRES   REMARKS
GREELEY ARPT   FAIR      48  39  71 CALM      30.14S
AKRON          FAIR      60  41  49 SW12      30.12R
BURLINGTON     FAIR      58  42  55 S9        30.14R
WRAY           NOT AVBL
STERLING       FAIR      52  46  82 SW5       30.10R
HOLYOKE        NOT AVBL
FORT MORGAN    FAIR      52  41  65 SW8       30.13S
$$

COZ086-089-092>099-051500-
...SOUTHEAST COLORADO...

CITY           SKY/WX    TMP DP  RH WIND       PRES   REMARKS
PUEBLO         FAIR      57  39  51 W3        30.15R
LA JUNTA       FAIR      53  43  68 W12       30.12R
LAMAR          FAIR      60  41  49 SW9       30.09R
SPRINGFIELD      N/A     57  40  52 SW12      30.13R
$$



USA.gov is the U.S. government's official web portal to all federal, state and local government web resources and services.